Torna al catalogo

STARLINK-35355

AttivoComunicazioniVLEO
NORAD 66448·PAYLOAD·🇺🇸 United States

Lanciato Nov 11, 2025 da Cape Canaveral Space Force Station

Loading…

Prossimi Passaggi (prossime 24 ore)

TLE

AggiornatoSource: CelesTrak SupGP

Epoca: Sep 15, 2026, 03:49 UTC

1 66448C 25259AC  26258.15951389 -.00008740  00000+0 -31626-3 0  2584
2 66448  43.0000 284.6731 0001386 273.4865 103.7485 15.27614077    10

Traccia STARLINK-35355 in tempo reale con AllMySat

Download on the App Store